DW5750 Weather Reports


time (UTC)temp
C
wind
direction
speed
KPH
gust
KPH
rain 1hr
cm
rain 24hr
cm
rain mn
cm
humidity
%
barometer
mb
20260507113010 23 275 0.0 4.8 0.00 0.00 0.00 100 1009.4
20260507111503 24 305 4.8 6.4 0.00 0.00 0.00 100 1009.1
20260507110002 24 298 3.2 4.8 0.00 0.00 0.00 100 1009.0
20260507104604 24 311 3.2 6.4 0.00 0.00 0.00 100 1009.1
20260507103100 24 297 4.8 6.4 0.00 0.00 0.00 100 1008.8
20260507101559 24 313 1.6 6.4 0.00 0.00 0.00 100 1008.9
20260507100056 24 319 3.2 6.4 0.00 0.00 0.00 100 1008.9
20260507094600 24 308 3.2 4.8 0.00 0.00 0.00 100 1009.0
20260507093054 24 315 1.6 4.8 0.00 0.00 0.00 100 1009.0
20260507091553 24 301 3.2 4.8 0.00 0.00 0.00 100 1008.9
20260507090049 24 315 3.2 4.8 0.00 0.00 0.00 100 1009.2
20260507084547 24 308 3.2 4.8 0.00 0.00 0.00 100 1009.4
20260507083045 24 312 0.0 0.0 0.00 0.00 0.00 100 1009.6
20260507081544 24 294 0.0 0.0 0.00 0.00 0.00 100 1009.8
20260507080044 25 319 0.0 0.0 0.00 0.00 0.00 100 1010.1
20260507074546 25 317 1.6 4.8 0.00 0.00 0.00 100 1010.2
20260507073045 25 295 3.2 4.8 0.00 0.00 0.00 100 1010.5
20260507071537 24 311 3.2 4.8 0.00 0.00 0.00 100 1010.7
20260507070044 24 304 1.6 6.4 0.00 0.00 0.00 100 1010.8
20260507064535 25 276 0.0 0.0 0.00 0.00 0.00 100 1010.9
20260507063034 25 305 0.0 4.8 0.00 0.00 0.00 100 1011.0
20260507061529 25 311 3.2 6.4 0.00 0.00 0.00 100 1011.2
20260507060032 25 314 3.2 4.8 0.00 0.00 0.00 100 1011.3
20260507054525 25 319 1.6 4.8 0.00 0.00 0.00 99 1011.4
20260507053025 25 278 0.0 0.0 0.00 0.00 0.00 99 1011.3
20260507051527 25 293 3.2 8.0 0.00 0.00 0.00 99 1011.4
20260507050029 25 297 4.8 6.4 0.00 0.00 0.00 99 1011.6
20260507044522 25 294 3.2 6.4 0.00 0.00 0.00 99 1011.7
20260507043021 25 293 4.8 6.4 0.00 0.00 0.00 99 1011.6
20260507041521 25 314 0.0 4.8 0.00 0.00 0.00 98 1011.5
20260507040020 25 301 3.2 6.4 0.00 0.00 0.00 98 1011.5
20260507034521 25 293 0.0 4.8 0.00 0.00 0.00 98 1011.3
20260507033026 25 306 0.0 0.0 0.00 0.00 0.00 98 1011.2
20260507031524 25 305 0.0 6.4 0.00 0.00 0.00 98 1011.1
20260507030018 25 299 0.0 4.8 0.00 0.00 0.00 98 1010.9
20260507024515 25 315 3.2 6.4 0.00 0.05 0.00 98 1010.7
20260507023014 25 311 3.2 6.4 0.00 0.05 0.00 98 1010.6
20260507021514 25 292 1.6 6.4 0.00 0.05 0.00 98 1010.6
20260507020015 26 293 1.6 4.8 0.00 0.05 0.00 97 1010.5
20260507014512 26 309 0.0 3.2 0.00 0.05 0.00 97 1010.4
20260507013011 26 267 3.2 6.4 0.00 0.05 0.00 96 1010.3
20260507011525 26 235 1.6 9.7 0.00 0.05 0.00 96 1010.1
20260507010011 26 230 6.4 11.3 0.00 0.05 0.00 95 1009.9
20260507004509 26 204 3.2 9.7 0.00 0.05 0.00 95 1009.8
20260507003009 26 246 3.2 9.7 0.00 0.05 0.00 95 1009.6
20260507001513 26 258 4.8 11.3 0.00 0.05 0.00 95 1009.3
20260507000008 27 260 4.8 9.7 0.00 0.05 0.00 94 1009.2
20260506234507 27 247 4.8 12.9 0.00 0.05 0.00 94 1009.0
20260506233007 27 245 4.8 11.3 0.00 0.05 0.00 94 1008.8
20260506231505 27 238 6.4 14.5 0.00 0.05 0.00 93 1008.8
20260506230007 27 223 8.0 16.1 0.00 0.05 0.00 92 1008.8
20260506224504 27 244 6.4 11.3 0.00 0.05 0.00 91 1008.5
20260506223003 27 240 8.0 16.1 0.00 0.05 0.00 92 1008.7
20260506221601 28 240 6.4 14.5 0.00 0.05 0.00 90 1008.6
20260506220001 27 233 4.8 17.7 0.00 0.05 0.00 91 1008.8
20260506214600 27 295 4.8 16.1 0.00 0.05 0.00 90 1008.7
20260506213104 27 226 9.7 16.1 0.00 0.05 0.00 90 1008.6
20260506211558 27 245 11.3 19.3 0.00 0.05 0.00 90 1008.7
20260506210058 28 231 11.3 19.3 0.00 0.05 0.00 91 1008.8
20260506204553 28 208 11.3 24.1 0.00 0.05 0.00 90 1009.0
20260506203052 28 233 14.5 20.9 0.00 0.05 0.00 91 1009.1
20260506201552 28 256 12.9 20.9 0.00 0.05 0.00 91 1009.3
20260506200047 28 220 8.0 20.9 0.00 0.05 0.00 91 1009.6
20260506194547 28 187 12.9 20.9 0.00 0.05 0.00 90 1009.7
20260506193046 28 221 12.9 24.1 0.00 0.05 0.00 90 1010.0
20260506191545 28 259 12.9 20.9 0.00 0.05 0.00 91 1010.2
20260506190046 28 226 12.9 19.3 0.00 0.05 0.00 89 1010.3
20260506184549 28 217 8.0 20.9 0.00 0.05 0.00 91 1010.4
20260506183041 28 188 11.3 19.3 0.00 0.05 0.00 90 1010.7
20260506181540 28 238 11.3 19.3 0.00 0.05 0.00 90 1010.8
20260506180041 28 194 11.3 17.7 0.00 0.05 0.00 90 1011.1
20260506174538 28 219 6.4 16.1 0.00 0.05 0.00 90 1011.3
20260506173057 28 205 9.7 17.7 0.00 0.05 0.00 90 1011.4
20260506171536 28 177 11.3 17.7 0.00 0.05 0.00 90 1011.5
20260506170040 28 198 9.7 19.3 0.00 0.05 0.00 90 1011.8
20260506164535 28 191 9.7 17.7 0.00 0.05 0.00 90 1011.9
20260506163037 27 220 6.4 17.7 0.00 0.05 0.00 90 1011.9
20260506161532 27 219 9.7 14.5 0.00 0.05 0.00 90 1011.9
20260506160032 27 186 6.4 17.7 0.00 0.05 0.00 92 1011.8
20260506154529 27 263 6.4 16.1 0.00 0.05 0.00 92 1011.8
20260506153028 27 200 6.4 16.1 0.00 0.05 0.00 92 1011.8
20260506151528 27 222 9.7 14.5 0.00 0.05 0.00 92 1011.5
20260506150025 27 182 9.7 16.1 0.00 0.05 0.00 93 1011.7
20260506144527 27 164 8.0 16.1 0.00 0.05 0.00 94 1011.7
20260506143025 27 223 6.4 16.1 0.00 0.05 0.00 95 1011.5
20260506141520 26 212 8.0 14.5 0.00 0.05 0.00 96 1011.5
20260506140017 26 250 0.0 8.0 0.00 0.05 0.00 97 1011.6
20260506134514 26 219 4.8 9.7 0.00 0.05 0.00 97 1011.5
20260506133013 26 281 1.6 8.0 0.00 0.05 0.00 98 1011.2
20260506131509 25 282 1.6 4.8 0.00 0.05 0.00 99 1011.1
20260506130008 25 300 0.0 4.8 0.00 0.05 0.00 100 1010.9
20260506124505 25 304 3.2 6.4 0.00 0.05 0.00 100 1010.7
20260506123004 24 294 3.2 6.4 0.00 0.05 0.00 100 1010.6
20260506121503 24 307 3.2 6.4 0.00 0.05 0.00 100 1010.5
20260506120003 24 302 4.8 8.0 0.00 0.05 0.00 100 1010.4
20260506114501 24 300 4.8 8.0 0.00 0.05 0.00 100 1010.3